User: anonymous   Login
Location: Unspecified
(0.0000°N, 0.0000°E)
Time: 09:01:36
(UTC+00:00)
Language:

STARLINK-2440 - Orbit

View from above orbital plane
View from above orbital plane
View from above satellite
View from above satellite

Ground track
Ground track

The orbit is defined by the following mean orbital elements,

1 48105U          26145.59730303 +.00000000 +00000-0 -39965-4 0 00006
2 48105  53.1599 103.5455 0001595  97.7248 262.3935 15.31685328    04
Epoch (UTC): 25 May 2026 14:20:06
Eccentricity: 0.0001595
inclination: 53.1599°
perigee height: 470 km
apogee height: 472 km
right ascension of ascending node: 103.5455°
argument of perigee: 97.7248°
revolutions per day: 15.31685328
mean anomaly at epoch: 262.3935°

The dashed part of the orbit path shows where the satellite is in the earth's shadow,  

DLR